CZ-3B R/B (46611 NORAD) Tracking and Keplerian Element Data

This shows tracking and keplerian element data for the satellite.

Feedback or suggestion? Click here.




ElementValue
Catalog46611
NameCZ-3B R/B
Epoch Orbit53
Epoch Day307.9678636
Epoch Year2020
RAAN263.4814
Inclination28.4363
Eccentricity0.721617
Argument of Perigee192.8322
Mean Anonmoly129.5182
Mean Motion2.41380732
Decay Rate5.134E-05
L11 46611U 20071B 20307.96786360 .00005134 89352-6 10000-3 0 9995
L22 46611 28.4363 263.4814 7216170 192.8322 129.5182 2.41380732 531



Live tracking and technical data element details for CZ-3B R/B (NORAD 46611). CZ-3B R/B can be tracked NOW for your location showing map with azimuth and elevation plus other details from your city location.







IsCatalogInMostPopularTable: catalog: 46611, numindb: 147
Update: records affected: 1



GetName: 46611 CZ-3B R/B

Hit Count: updated at: Sat, 10 Jun 2023 23:48:44 GMT